ONEWEB-0287 (49077 NORAD) Tracking and Keplerian Element Data

This shows tracking and keplerian element data for the satellite.

Feedback or suggestion? Click here.




ElementValue
Catalog49077
NameONEWEB-0287
Epoch Orbit559
Epoch Day262.16668981
Epoch Year2021
RAAN356.4577
Inclination87.4213
Eccentricity0.0019083
Argument of Perigee190.9232
Mean Anonmoly245.1974
Mean Motion15.15510947
Decay Rate-0.00890187
L11 49077U 21075C 21262.16668981 -.00890187 00000-0 -50400-1 0 9995
L22 49077 87.4213 356.4577 0019083 190.9232 245.1974 15.15510947 5597

Live tracking and technical data element details for ONEWEB-0287 (NORAD 49077). ONEWEB-0287 can be tracked NOW for your location showing map with azimuth and elevation plus other details from your city location.

Track the satellite on the map from your city or location and see movement details for azimuth, elevation, latitude, longitude, range, height, and movement on the map or in text.







IsCatalogInMostPopularTable: catalog: 49077, numindb: 4
Update: records affected: 1



GetName: 49077 ONEWEB-0287

Hit Count: updated at: Fri, 24 Sep 2021 17:45:55 GMT